[[{"header":{"parameterUnit":"m.s-1","parameterCategory":1,"la1":30.2991,"la2":30.254,"lo1":-89.0895,"lo2":-89.0444,"dy":0.0017,"dx":0.0017,"nx":28,"ny":28,"refTime":"2023-08-08T03:00:00:Z","depth":0,"parameterNumber":2,"parameterNumberName":"U-component_of_WINDS"},"data":[0,0,0,0,0,0,0,0,0,0,0,0,0,0,0,0,0,0,0,0,0,0,0,0,0,0,0,0,0,0,0,0,0,0,0,0,0,0,0,0,0,0,0,0,0,0,0,0,0,0,0,0,0,0,0,0,0,0,2.8863,2.8863,0,2.8927,2.8928,2.8929,2.8874,2.8872,2.887,2.8868,2.8934,2.8937,2.8941,0,0,0,0,0,0,0,0,0,0,0,0,0,2.869,2.8693,2.8862,2.8863,2.8864,2.8927,2.8928,2.8929,2.8875,2.8872,2.8869,2.8867,2.8932,2.8937,2.8942,0,0,0,0,0,0,0,0,0,0,0,0,0,2.8761,2.8694,2.8862,2.8845,2.8844,2.8927,2.8928,2.8929,2.8875,2.8872,2.8869,2.8865,2.8931,2.8936,2.8942,2.9046,0,0,2.896,2.8962,0,0,0,0,0,0,0,0,2.8757,2.8767,2.8846,2.8846,2.8845,2.8889,2.8891,2.8968,2.8876,2.8863,2.8868,2.8864,2.8922,2.8928,2.8948,2.9049,2.9052,2.896,2.8964,2.8966,2.8968,0,0,0,0,0,0,0,2.8752,2.8764,2.8888,2.8848,2.8847,2.8833,2.8839,2.8906,2.8911,2.8864,2.886,2.8869,2.8921,2.8942,2.8949,2.9053,2.896,2.8965,2.8969,2.8971,2.924,2.9243,0,0,0,0,0,0,2.8749,2.876,2.8886,2.889,2.8792,2.8839,2.8846,2.8879,2.891,2.8911,2.8872,2.8866,2.8934,2.8942,2.8951,2.9072,2.8966,2.8972,2.8975,2.9236,2.9241,2.9245,0,0,0,0,0,0,2.8745,2.8761,2.8883,2.8824,2.8839,2.8845,2.8883,2.8882,2.8903,2.8916,2.8916,2.8893,2.8931,2.8943,2.9022,2.9074,2.8974,2.898,2.9232,2.9238,2.9243,2.9317,0,0,0,0,0,0,2.8741,2.876,2.88,2.8825,2.8842,2.8954,2.8886,2.8885,2.8913,2.8907,2.8936,2.8937,2.893,2.9014,2.9028,2.908,2.8984,2.9227,2.9235,2.9241,2.931,2.9324,2.9337,0,0,0,0,0,2.8735,2.8819,2.8802,2.8818,2.8892,2.8958,2.8967,2.8957,2.8918,2.8957,2.8965,2.8936,2.9066,2.9022,2.9038,2.9092,2.9224,2.9232,2.924,2.9304,2.9322,2.9336,0,0,0,0,0,0,2.88,2.8822,2.8804,2.8899,2.8927,2.8948,2.8998,2.8976,2.9016,2.9008,2.8994,2.9001,2.9084,2.9096,2.9047,2.9193,2.9139,2.915,2.9182,2.9198,2.9212,2.9206,2.8989,0,0,0,0,0,2.8825,2.8876,2.8893,2.8975,2.899,2.8992,2.902,2.901,2.9038,2.9049,2.9063,2.9091,2.9138,2.9169,2.9213,2.9312,2.9316,2.9357,2.937,2.9381,2.9391,2.9441,2.9459,2.9272,2.9272,2.9271,0,0,2.8878,2.8896,2.893,2.8989,2.9009,2.9061,2.9002,2.9061,2.9099,2.9058,2.9133,2.9144,2.9175,2.9264,2.9304,2.9277,2.9444,2.9392,2.94,2.9404,2.9452,2.9469,2.9485,2.9277,2.9276,2.9275,0,0,2.9,2.9021,2.909,2.9111,2.9142,2.9143,2.916,2.9184,2.919,2.9265,2.9235,2.928,2.9362,2.9384,2.9406,2.9535,2.9509,2.955,2.9619,2.9669,2.9683,2.9696,2.974,2.9756,2.956,2.956,2.956,0,2.9062,2.914,2.9128,2.9188,2.9214,2.9179,2.9248,2.927,2.9314,2.9332,2.9301,2.9402,2.942,2.9512,2.9543,2.9563,2.958,2.9546,2.9682,2.9695,2.9707,2.9748,2.9765,2.9565,2.9564,2.9564,2.9563,0,2.9213,2.9268,2.932,2.9362,2.9394,2.9459,2.9456,2.9489,2.9476,2.9479,2.9555,2.9576,2.9622,2.9644,2.9632,2.9734,2.9716,2.9684,2.9629,2.973,2.9768,2.9784,2.9571,2.957,2.9568,2.9567,0,0,2.9378,2.9412,2.9431,2.9449,2.9481,2.9522,2.9584,2.9629,2.9657,2.9689,2.9739,2.9809,2.9779,2.9804,2.9794,2.9838,2.9936,2.98,2.9801,2.9823,3.0046,3.0068,3.0087,2.9919,2.9922,2.9925,3.0043,0,2.95,2.9608,2.9598,2.97,2.9749,2.9716,2.977,2.9794,2.9799,2.984,2.9845,2.9894,2.9852,2.9866,2.9908,2.9915,2.998,2.9907,2.9964,2.9967,2.9956,3.0108,3.0132,3.0242,3.0058,3.0061,3.0063,0,2.9657,2.9693,2.9799,2.9821,2.9841,2.989,2.9929,2.997,2.9996,2.9996,3.0023,3.0006,3.0067,3.0011,3.0094,3.0044,3.0068,3.0074,3.0078,3.0082,3.0019,3.0113,3.0278,3.0293,3.0087,3.0085,3.0083,0,2.9763,2.9839,2.9911,2.9928,2.9956,2.999,3.0003,3.0026,3.0053,3.0088,3.0105,3.0146,3.0168,3.02,3.0194,3.0154,3.0278,3.0222,3.0278,3.0278,3.0304,3.0302,3.0472,3.0323,3.0323,3.0322,3.0322,0,2.9899,2.9965,2.9959,3.0004,3.0076,3.0064,3.0136,3.0144,3.0165,3.021,3.0184,3.0227,3.0216,3.0258,3.0254,3.0322,3.0333,3.0333,3.0331,3.0334,3.0334,3.0348,3.0339,3.0327,3.0326,3.0325,3.0324,0,3.003,3.0029,3.0106,3.0125,3.0132,3.0184,3.02,3.0241,3.0243,3.03,3.0313,3.0316,3.0364,3.0361,3.0415,3.0412,3.0495,3.0485,3.0486,3.0483,3.0538,3.0532,3.0722,3.0745,3.0582,3.0584,3.0585,0,3.0116,3.0166,3.019,3.0218,3.0233,3.0279,3.0306,3.0296,3.0325,3.0357,3.0394,3.044,3.0475,3.0553,3.056,3.0601,3.059,3.0653,3.0596,3.0597,3.0588,3.0584,3.0588,3.0664,3.0666,3.0667,3.0669,0,3.0268,3.0264,3.0304,3.0344,3.0376,3.0407,3.0435,3.0459,3.0451,3.0485,3.0533,3.056,3.0615,3.066,3.0698,3.0711,3.0688,3.0687,3.0701,3.0705,3.0702,3.0702,3.0515,3.0682,3.0681,3.068,3.0679,3.0679,3.0377,3.0419,3.0442,3.0486,3.0506,3.0532,3.0571,3.0578,3.0618,3.0661,3.0652,3.0706,3.0729,3.0778,3.0795,3.0836,3.0813,3.0835,3.084,3.0845,3.085,3.0697,3.0843,3.0843,3.0842,3.0842,3.0842,0,3.0526,3.0538,3.058,3.0618,3.0653,3.0629,3.0658,3.0688,3.0735,3.0759,3.0794,3.0848,3.0891,3.0901,3.0942,3.0972,3.0963,3.0983,3.098,3.0983,3.0869,3.0851,3.099,3.099,3.099,3.099,3.099,3.099,3.0607,3.0675,3.0674,3.0751,3.0763,3.0815,3.0833,3.0856,3.0875,3.0936,3.0971,3.0977,3.0995,3.1036,3.1074,3.1076,3.1091,3.1115,3.1112,3.1006,3.0991,3.0977,3.096,3.1119,3.1119,3.1222,3.1223,3.1224]},{"header":{"parameterUnit":"m.s-1","parameterCategory":1,"la1":30.2991,"la2":30.254,"lo1":-89.0895,"lo2":-89.0444,"dy":0.0017,"dx":0.0017,"nx":28,"ny":28,"refTime":"2023-08-08T03:00:00:Z","depth":0,"parameterNumber":3,"parameterNumberName":"V-component_of_WINDS"},"data":[0,0,0,0,0,0,0,0,0,0,0,0,0,0,0,0,0,0,0,0,0,0,0,0,0,0,0,0,0,0,0,0,0,0,0,0,0,0,0,0,0,0,0,0,0,0,0,0,0,0,0,0,0,0,0,0,0,0,2.3227,2.3228,0,2.3329,2.3331,2.3332,2.3293,2.3291,2.3289,2.3286,2.3393,2.3398,2.3403,0,0,0,0,0,0,0,0,0,0,0,0,0,2.2997,2.3001,2.3226,2.3228,2.3229,2.3329,2.3331,2.3332,2.3294,2.3291,2.3288,2.3285,2.3392,2.3398,2.3404,0,0,0,0,0,0,0,0,0,0,0,0,0,2.3098,2.3003,2.3226,2.3222,2.3223,2.3329,2.3331,2.3332,2.3294,2.3291,2.3287,2.3284,2.339,2.3397,2.3404,2.3522,0,0,2.3428,2.3431,0,0,0,0,0,0,0,0,2.3092,2.3106,2.3221,2.3222,2.3223,2.3295,2.3289,2.3396,2.3295,2.3267,2.3286,2.3282,2.3364,2.3373,2.34,2.3527,2.3531,2.3428,2.3433,2.3436,2.3438,0,0,0,0,0,0,0,2.3085,2.3102,2.3267,2.3223,2.3224,2.3215,2.3225,2.3309,2.3334,2.3269,2.3267,2.3279,2.3363,2.3393,2.3402,2.3533,2.3428,2.3435,2.3439,2.3442,2.3759,2.3762,0,0,0,0,0,0,2.3078,2.3096,2.3264,2.327,2.3148,2.3222,2.3234,2.3276,2.3333,2.3338,2.3282,2.3277,2.3382,2.3394,2.3406,2.3546,2.3436,2.3443,2.3447,2.3755,2.376,2.3764,0,0,0,0,0,0,2.3073,2.3093,2.326,2.3183,2.3203,2.323,2.3277,2.3279,2.3309,2.3343,2.3347,2.3308,2.3379,2.3395,2.3493,2.3549,2.3447,2.3453,2.375,2.3756,2.3762,2.3827,0,0,0,0,0,0,2.3066,2.3092,2.3137,2.3184,2.3207,2.3345,2.3281,2.3284,2.3322,2.3316,2.3368,2.3373,2.3378,2.3482,2.35,2.3558,2.3459,2.3745,2.3753,2.376,2.382,2.3835,2.3847,0,0,0,0,0,2.3058,2.3152,2.3139,2.316,2.3264,2.3349,2.3362,2.3365,2.3327,2.3372,2.3393,2.3371,2.354,2.3492,2.3512,2.3573,2.3742,2.3751,2.3759,2.3814,2.3832,2.3847,0,0,0,0,0,0,2.3112,2.3158,2.3144,2.3256,2.3298,2.3342,2.3399,2.3384,2.3439,2.3431,2.3433,2.3445,2.3545,2.3569,2.3515,2.3688,2.3635,2.3648,2.367,2.3687,2.37,2.3692,2.3466,0,0,0,0,0,2.3136,2.3201,2.3238,2.3332,2.3354,2.3373,2.341,2.3409,2.3453,2.3471,2.35,2.3544,2.3606,2.3648,2.3707,2.3823,2.3833,2.3875,2.3888,2.3899,2.391,2.3972,2.399,2.3792,2.3792,2.3792,0,0,2.3188,2.3221,2.3262,2.3344,2.3377,2.3443,2.3389,2.3462,2.3511,2.3482,2.3576,2.3598,2.3647,2.3754,2.3802,2.3776,2.3967,2.391,2.3918,2.3924,2.3983,2.4001,2.4018,2.3798,2.3797,2.3796,0,0,2.3316,2.3348,2.343,2.3463,2.3513,2.3524,2.3544,2.3589,2.3603,2.3696,2.3675,2.3734,2.3842,2.3877,2.391,2.4049,2.403,2.4068,2.4138,2.4198,2.4214,2.4227,2.4276,2.4294,2.4079,2.4079,2.408,0,2.3374,2.3474,2.3474,2.3548,2.3584,2.356,2.3642,2.3675,2.3742,2.3767,2.3737,2.3871,2.3902,2.4016,2.405,2.4077,2.4099,2.4063,2.4211,2.4225,2.4238,2.4285,2.4303,2.4084,2.4083,2.4083,2.4082,0,2.3542,2.3611,2.3671,2.3735,2.3778,2.3856,2.3867,2.3911,2.3905,2.3919,2.4014,2.4051,2.4116,2.4143,2.4139,2.4256,2.4238,2.421,2.4156,2.4261,2.4305,2.4323,2.409,2.4088,2.4087,2.4086,0,0,2.3709,2.377,2.3792,2.382,2.3872,2.3925,2.4001,2.4065,2.4101,2.4148,2.4212,2.4302,2.4276,2.4312,2.4311,2.4364,2.447,2.4329,2.433,2.4353,2.46,2.4622,2.4642,2.4458,2.4461,2.4464,2.4596,0,2.384,2.3974,2.3975,2.4098,2.4161,2.4137,2.4204,2.4242,2.4258,2.4313,2.433,2.4394,2.4354,2.4376,2.4426,2.4447,2.452,2.4437,2.4517,2.452,2.4506,2.4665,2.4689,2.4812,2.4613,2.4616,2.4618,0,2.4013,2.4063,2.4192,2.4233,2.4259,2.4319,2.4376,2.443,2.4473,2.448,2.4519,2.451,2.4587,2.453,2.4636,2.458,2.4612,2.4627,2.4631,2.4639,2.4576,2.4677,2.4851,2.4869,2.4645,2.4643,2.4641,0,2.412,2.4221,2.431,2.4335,2.4385,2.4427,2.445,2.449,2.4527,2.4577,2.4601,2.466,2.4692,2.4737,2.4744,2.4702,2.485,2.4794,2.4858,2.4857,2.489,2.4888,2.5071,2.4911,2.4911,2.4911,2.491,0,2.4267,2.4347,2.4359,2.4414,2.4502,2.4502,2.4589,2.4609,2.4643,2.4702,2.4685,2.474,2.4745,2.4801,2.4807,2.4893,2.4908,2.4915,2.4916,2.4917,2.4916,2.4939,2.4931,2.4916,2.4915,2.4914,2.4913,0,2.4403,2.4414,2.451,2.4549,2.4561,2.4624,2.4657,2.4709,2.4722,2.4795,2.4813,2.4833,2.4898,2.4908,2.4986,2.4989,2.5092,2.5084,2.5078,2.5076,2.5139,2.5133,2.5344,2.5371,2.5193,2.5195,2.5196,0,2.4496,2.4557,2.4602,2.4639,2.4664,2.4724,2.4762,2.4764,2.4803,2.4856,2.4902,2.4965,2.5016,2.5121,2.5143,2.5201,2.5194,2.5264,2.5203,2.5201,2.5195,2.5191,2.5197,2.5276,2.5278,2.5279,2.528,0,2.466,2.4662,2.4717,2.4773,2.4818,2.4863,2.4905,2.4936,2.4943,2.4989,2.5055,2.5094,2.5172,2.5235,2.5292,2.5315,2.53,2.5299,2.5317,2.5319,2.5312,2.5316,2.5109,2.5295,2.5293,2.5292,2.5291,2.5291,2.4778,2.4829,2.4869,2.4929,2.4961,2.5,2.505,2.5068,2.5123,2.5186,2.5184,2.5256,2.5296,2.5371,2.5399,2.5455,2.5432,2.5458,2.5465,2.5471,2.5477,2.5303,2.5465,2.5465,2.5465,2.5464,2.5464,0,2.494,2.4964,2.502,2.5078,2.5126,2.5105,2.515,2.5191,2.5255,2.5293,2.5342,2.5418,2.5478,2.5503,2.5562,2.5602,2.5596,2.5618,2.5615,2.562,2.5494,2.5473,2.5622,2.5622,2.5622,2.5622,2.5622,2.5621,2.5031,2.5117,2.5123,2.5224,2.5247,2.5317,2.5345,2.538,2.5411,2.5495,2.5545,2.556,2.5593,2.5654,2.5708,2.5714,2.5736,2.5761,2.5764,2.5645,2.563,2.5614,2.5594,2.5766,2.5766,2.5885,2.5886,2.5887]}]]